Location: Plainartige
(45.6866°N, 1.7993°E)
Time: 03:16:13
(UTC+00:00)

BEESAT - Pass Details

Date: 30 June 2022
Orbit: 700 x 706 km, 98.6° (Epoch: 11 August)

Event Time Altitude Azimuth Distance (km) Brightness Sun altitude
Rises 21:09:15 0° 6° (N) 3,105 ? -11.4°
Reaches altitude 10° 21:11:39 10° 358° (N) 2,183 ? -11.7°
Maximum altitude 21:15:59 35° 293° (WNW) 1,126 ? -12.1°
Drops below altitude 10° 21:20:18 10° 228° (SW) 2,172 ? -12.6°
Sets 21:22:41 0° 220° (SW) 3,087 ? -12.8°
